[[{"header":{"parameterUnit":"m.s-1","parameterCategory":2,"la1":30.2991,"la2":30.254,"lo1":-89.0895,"lo2":-89.0444,"dy":0.0017,"dx":0.0017,"nx":28,"ny":28,"refTime":"2025-07-30T03:00:00:Z","depth":"0","parameterNumber":2,"parameterNumberName":"U-component_of_CURRENTS"},"data":[0,0,0,0,0,0,0,0,0,0,0,0,0,0,0,0,0,0,0,0,0,0,0,0,0,0,0,0,0,0,0,0,0,0,0,0,0,0,0,0,0,0,0,0,0,0,0,0,0,0,0,0,0,0,0,0,0,0,0.2095,0.2095,0,0.214,0.2141,0.2141,0.2165,0.2165,0.2165,0.2165,0.2302,0.2305,0.2309,0,0,0,0,0,0,0,0,0,0,0,0,0,0.2114,0.2112,0.2095,0.2095,0.2096,0.214,0.2141,0.2141,0.2165,0.2165,0.2165,0.2165,0.2301,0.2305,0.2309,0,0,0,0,0,0,0,0,0,0,0,0,0,0.2125,0.2112,0.2095,0.2114,0.2117,0.214,0.2141,0.2141,0.2164,0.2165,0.2165,0.2165,0.2299,0.2305,0.231,0.2337,0,0,0.2326,0.2328,0,0,0,0,0,0,0,0,0.2124,0.2124,0.2111,0.2113,0.2116,0.2148,0.2198,0.2212,0.2164,0.2145,0.2165,0.2165,0.226,0.2268,0.2273,0.2343,0.2349,0.2326,0.2329,0.2331,0.2333,0,0,0,0,0,0,0,0.2123,0.2123,0.2111,0.2111,0.2115,0.215,0.2151,0.22,0.2201,0.2146,0.2149,0.2156,0.2262,0.2268,0.2277,0.2351,0.2326,0.2331,0.2334,0.2336,0.2536,0.2538,0,0,0,0,0,0,0.2116,0.2121,0.211,0.2113,0.2123,0.2149,0.2151,0.2136,0.2198,0.2208,0.2156,0.2157,0.2259,0.227,0.2282,0.2345,0.2331,0.2336,0.2339,0.2534,0.2536,0.2539,0,0,0,0,0,0,0.2116,0.2113,0.2108,0.2121,0.2123,0.2148,0.2133,0.2137,0.2151,0.2205,0.2216,0.2167,0.2259,0.2274,0.232,0.235,0.2339,0.2343,0.2531,0.2534,0.2537,0.2455,0,0,0,0,0,0,0.2116,0.2112,0.2099,0.2119,0.2122,0.2119,0.2133,0.2138,0.2156,0.2158,0.2218,0.223,0.2261,0.2312,0.2325,0.2357,0.2348,0.2528,0.2532,0.2536,0.2455,0.2455,0.2455,0,0,0,0,0,0.2116,0.2103,0.2098,0.2097,0.2102,0.2119,0.2123,0.2143,0.2156,0.2157,0.2195,0.2229,0.235,0.2316,0.2332,0.2365,0.2526,0.2531,0.2536,0.2455,0.2455,0.2455,0,0,0,0,0,0,0.2103,0.2105,0.21,0.2086,0.2098,0.2123,0.2131,0.2146,0.2175,0.2184,0.2232,0.2246,0.2311,0.2354,0.2316,0.2444,0.2455,0.2463,0.2388,0.2389,0.2389,0.2396,0.2352,0,0,0,0,0,0.2092,0.208,0.2092,0.2078,0.2086,0.2108,0.2119,0.2132,0.2162,0.2175,0.221,0.2274,0.2343,0.2372,0.2434,0.2482,0.2528,0.2528,0.2528,0.2527,0.2549,0.262,0.2627,0.2555,0.2555,0.2554,0,0,0.2087,0.2082,0.2079,0.2075,0.2088,0.2102,0.2115,0.2132,0.2151,0.2188,0.2221,0.2272,0.236,0.2416,0.2452,0.2451,0.2569,0.2533,0.2531,0.2555,0.2626,0.2632,0.2638,0.2558,0.2557,0.2557,0,0,0.2085,0.2064,0.2065,0.207,0.2084,0.2098,0.2104,0.2127,0.2144,0.2174,0.2226,0.2283,0.2364,0.2427,0.2476,0.2521,0.257,0.2557,0.2552,0.2618,0.2624,0.263,0.2667,0.2677,0.255,0.255,0.255,0,0.2086,0.2068,0.207,0.2074,0.2082,0.2098,0.2112,0.2132,0.2164,0.2188,0.2181,0.232,0.2377,0.2478,0.2494,0.252,0.2556,0.2528,0.2613,0.262,0.2627,0.2665,0.2677,0.2546,0.2547,0.2547,0.2547,0,0.2088,0.2074,0.2077,0.2081,0.2092,0.21,0.2128,0.2144,0.2162,0.2186,0.2265,0.2324,0.2409,0.2443,0.248,0.2578,0.2585,0.26,0.2596,0.2628,0.2668,0.2681,0.2542,0.2543,0.2544,0.2545,0,0,0.2104,0.2083,0.2082,0.2078,0.2093,0.2103,0.2138,0.2175,0.2206,0.2234,0.2283,0.2388,0.241,0.2472,0.2525,0.2583,0.2645,0.2608,0.2613,0.2616,0.2775,0.2671,0.2676,0.2664,0.2667,0.2669,0.277,0,0.211,0.2094,0.2095,0.2099,0.21,0.2122,0.2152,0.219,0.2219,0.2263,0.2337,0.2406,0.2425,0.2466,0.2524,0.2638,0.2684,0.2616,0.2773,0.2778,0.2656,0.269,0.2503,0.2569,0.2783,0.2786,0.2787,0,0.2129,0.2104,0.2093,0.2096,0.2104,0.2115,0.216,0.2189,0.2261,0.2291,0.2354,0.2406,0.2516,0.2514,0.2686,0.264,0.2707,0.2771,0.2777,0.2726,0.27,0.2583,0.2586,0.2498,0.2809,0.2807,0.2805,0,0.2132,0.212,0.2099,0.2095,0.2101,0.2116,0.2135,0.2195,0.223,0.2311,0.2343,0.2455,0.2521,0.2629,0.2734,0.2728,0.29,0.2907,0.2871,0.2863,0.2763,0.2741,0.2677,0.302,0.302,0.302,0.3019,0,0.2136,0.2131,0.2091,0.2074,0.2079,0.2099,0.2128,0.2169,0.2234,0.2282,0.2351,0.2414,0.2556,0.2652,0.2747,0.2835,0.2906,0.2885,0.2891,0.2726,0.2701,0.2669,0.2638,0.3023,0.3023,0.3022,0.3021,0,0.2143,0.2121,0.2098,0.2072,0.2074,0.2076,0.211,0.2142,0.22,0.2265,0.2297,0.2413,0.2537,0.2643,0.2824,0.2839,0.2841,0.2953,0.2727,0.2704,0.2568,0.254,0.2435,0.2388,0.2944,0.2942,0.2941,0,0.214,0.2114,0.2071,0.2065,0.2051,0.2055,0.2075,0.2125,0.2157,0.2265,0.2303,0.2422,0.2502,0.2677,0.2726,0.2829,0.2774,0.2705,0.2663,0.2537,0.2514,0.2414,0.2377,0.2499,0.2494,0.249,0.2487,0,0.2098,0.2079,0.204,0.2036,0.204,0.2042,0.2064,0.2082,0.2153,0.2199,0.2283,0.2354,0.2475,0.2478,0.2559,0.261,0.2511,0.2622,0.2566,0.2219,0.2038,0.2001,0.2447,0.245,0.2454,0.2456,0.2458,0.246,0.2061,0.2034,0.1991,0.2003,0.2007,0.2019,0.2009,0.2039,0.2069,0.2106,0.2214,0.2241,0.2254,0.2338,0.2355,0.2206,0.2291,0.2147,0.2144,0.2073,0.1944,0.2286,0.2244,0.2246,0.2248,0.225,0.2252,0,0.199,0.198,0.1974,0.1966,0.1958,0.1985,0.1996,0.1971,0.1967,0.2002,0.2041,0.1992,0.1944,0.1936,0.1819,0.174,0.168,0.1691,0.1523,0.1537,0.1904,0.1799,0.1565,0.1565,0.1565,0.1565,0.1565,0.1566,0.1957,0.1922,0.1935,0.1913,0.1913,0.1881,0.1874,0.1838,0.1827,0.1744,0.1679,0.1703,0.1674,0.1522,0.1373,0.1343,0.127,0.1135,0.1246,0.1497,0.154,0.1581,0.1475,0.1176,0.1175,0.0773,0.077,0.0768]},{"header":{"parameterUnit":"m.s-1","parameterCategory":2,"la1":30.2991,"la2":30.254,"lo1":-89.0895,"lo2":-89.0444,"dy":0.0017,"dx":0.0017,"nx":28,"ny":28,"refTime":"2025-07-30T03:00:00:Z","depth":"0","parameterNumber":3,"parameterNumberName":"V-component_of_CURRENTS"},"data":[0,0,0,0,0,0,0,0,0,0,0,0,0,0,0,0,0,0,0,0,0,0,0,0,0,0,0,0,0,0,0,0,0,0,0,0,0,0,0,0,0,0,0,0,0,0,0,0,0,0,0,0,0,0,0,0,0,0,0.0601,0.0601,0,0.0627,0.0628,0.0628,0.0629,0.0628,0.0628,0.0628,0.0616,0.0616,0.0616,0,0,0,0,0,0,0,0,0,0,0,0,0,0.0506,0.0508,0.0601,0.0601,0.0602,0.0627,0.0628,0.0628,0.0629,0.0628,0.0628,0.0627,0.0616,0.0616,0.0616,0,0,0,0,0,0,0,0,0,0,0,0,0,0.0542,0.0509,0.0601,0.0604,0.0605,0.0627,0.0628,0.0628,0.0629,0.0628,0.0628,0.0627,0.0616,0.0616,0.0616,0.0629,0,0,0.0617,0.0617,0,0,0,0,0,0,0,0,0.054,0.0546,0.0604,0.0604,0.0605,0.0624,0.059,0.0626,0.0629,0.0621,0.0628,0.0627,0.0615,0.0615,0.0623,0.0628,0.0628,0.0617,0.0617,0.0617,0.0617,0,0,0,0,0,0,0,0.0538,0.0545,0.0612,0.0604,0.0605,0.0589,0.0594,0.0597,0.0621,0.0621,0.0621,0.0623,0.0615,0.0623,0.0623,0.0628,0.0617,0.0617,0.0617,0.0617,0.0667,0.0668,0,0,0,0,0,0,0.0537,0.0543,0.0611,0.0613,0.057,0.0592,0.0597,0.0619,0.0622,0.0622,0.0624,0.0623,0.0623,0.0623,0.0622,0.0656,0.0617,0.0617,0.0617,0.0665,0.0667,0.0668,0,0,0,0,0,0,0.0535,0.0544,0.061,0.0576,0.0584,0.0594,0.0618,0.062,0.0629,0.0624,0.0623,0.0631,0.0623,0.0622,0.0629,0.0654,0.0617,0.0617,0.0664,0.0666,0.0667,0.071,0,0,0,0,0,0,0.0533,0.0543,0.0554,0.0577,0.0586,0.0625,0.0619,0.0621,0.063,0.063,0.063,0.0628,0.0622,0.0629,0.063,0.0654,0.0617,0.0662,0.0665,0.0667,0.0707,0.0713,0.0718,0,0,0,0,0,0.0529,0.0542,0.0555,0.0562,0.0602,0.0626,0.0629,0.0633,0.0631,0.0639,0.064,0.0628,0.0645,0.063,0.063,0.0655,0.0661,0.0664,0.0667,0.0704,0.0712,0.0718,0,0,0,0,0,0,0.0493,0.0544,0.0558,0.0583,0.0605,0.0625,0.0628,0.0637,0.0646,0.0641,0.0638,0.0637,0.0659,0.065,0.0634,0.0678,0.0654,0.0657,0.0683,0.0689,0.0695,0.0695,0.0617,0,0,0,0,0,0.0496,0.0527,0.0563,0.0581,0.0594,0.0615,0.0623,0.0631,0.0642,0.0646,0.065,0.0656,0.0672,0.0673,0.0683,0.0698,0.0684,0.0717,0.0723,0.0727,0.0729,0.0729,0.0734,0.0677,0.0677,0.0677,0,0,0.0488,0.0516,0.0534,0.0576,0.0593,0.0621,0.0619,0.0634,0.0655,0.0642,0.0666,0.0675,0.0682,0.0707,0.0715,0.0699,0.0737,0.0731,0.0735,0.0734,0.0732,0.0737,0.0742,0.0679,0.0679,0.0679,0,0,0.0487,0.0513,0.0544,0.0568,0.0598,0.0615,0.0622,0.0652,0.0663,0.0687,0.0692,0.0714,0.0728,0.0746,0.0755,0.0797,0.077,0.0802,0.0825,0.0825,0.083,0.0833,0.082,0.0822,0.08,0.08,0.08,0,0.0476,0.0524,0.055,0.0581,0.0602,0.0617,0.0648,0.0664,0.069,0.0707,0.0696,0.0748,0.0751,0.0795,0.0811,0.0811,0.0796,0.0797,0.0831,0.0835,0.0838,0.0823,0.0825,0.0803,0.0802,0.0802,0.0802,0,0.0503,0.0541,0.0554,0.0612,0.0633,0.0658,0.0689,0.0708,0.0721,0.0742,0.0784,0.0796,0.0825,0.0838,0.0835,0.0872,0.085,0.0841,0.0811,0.0846,0.0828,0.0829,0.0806,0.0805,0.0804,0.0804,0,0,0.0488,0.0566,0.057,0.0606,0.0655,0.0675,0.071,0.0755,0.078,0.0804,0.0844,0.088,0.0885,0.0896,0.0904,0.0906,0.0917,0.0881,0.0879,0.0861,0.0903,0.088,0.0879,0.0907,0.0908,0.0908,0.0881,0,0.0507,0.0571,0.0605,0.0661,0.0701,0.0729,0.0764,0.0797,0.0821,0.0858,0.088,0.0917,0.0907,0.0924,0.0928,0.0929,0.0921,0.0924,0.0877,0.0876,0.0846,0.088,0.0901,0.0878,0.0882,0.0882,0.0882,0,0.0522,0.057,0.0632,0.0705,0.0724,0.0753,0.0808,0.0843,0.089,0.0909,0.0942,0.0956,0.0989,0.0963,0.0966,0.0965,0.0934,0.0922,0.092,0.0884,0.0856,0.0846,0.088,0.0885,0.0883,0.0883,0.0883,0,0.0499,0.0582,0.0633,0.0659,0.0743,0.0769,0.0806,0.0856,0.0894,0.094,0.097,0.0997,0.1019,0.0996,0.0976,0.0967,0.0962,0.0943,0.089,0.0887,0.0889,0.0886,0.0918,0.0925,0.0925,0.0925,0.0925,0,0.0508,0.0548,0.0625,0.0659,0.0714,0.0766,0.0821,0.0858,0.0918,0.0973,0.0994,0.1037,0.1026,0.1027,0.0988,0.095,0.0968,0.09,0.0885,0.0905,0.0903,0.0894,0.0878,0.0924,0.0925,0.0925,0.0925,0,0.048,0.0535,0.0597,0.0684,0.0709,0.0744,0.0832,0.0878,0.0928,0.0998,0.1017,0.1069,0.1072,0.1048,0.1016,0.0971,0.0929,0.0903,0.0922,0.091,0.0856,0.0842,0.08,0.0847,0.084,0.084,0.0839,0,0.0482,0.051,0.0597,0.0639,0.0682,0.0744,0.0797,0.0869,0.0925,0.1023,0.1062,0.109,0.1126,0.1074,0.1001,0.0926,0.0914,0.0879,0.0865,0.0864,0.0837,0.0805,0.0848,0.0883,0.0883,0.0883,0.0883,0,0.0484,0.0503,0.0551,0.0632,0.0694,0.077,0.0849,0.089,0.0986,0.1049,0.1131,0.1167,0.1133,0.109,0.099,0.0937,0.0894,0.0872,0.0878,0.088,0.0842,0.0878,0.0879,0.0882,0.0882,0.0882,0.0882,0.0882,0.0471,0.0496,0.0558,0.0625,0.0704,0.0796,0.0845,0.0935,0.1024,0.1132,0.1173,0.1248,0.1186,0.1063,0.0995,0.0884,0.0869,0.0851,0.0833,0.0802,0.0852,0.0841,0.0821,0.082,0.082,0.082,0.082,0,0.0464,0.0497,0.0561,0.0649,0.072,0.0773,0.0886,0.0938,0.1029,0.116,0.1237,0.1289,0.1202,0.1103,0.0934,0.0871,0.0871,0.0841,0.083,0.088,0.0883,0.0892,0.0879,0.0879,0.0879,0.0879,0.0879,0.0879,0.0469,0.0508,0.0537,0.0639,0.0703,0.0797,0.0853,0.0942,0.1047,0.1196,0.1291,0.1377,0.1355,0.1024,0.0887,0.0864,0.0879,0.0808,0.0842,0.0861,0.0862,0.0863,0.0871,0.0853,0.0853,0.0881,0.0881,0.0881]}],[{"header":{"parameterUnit":"m.s-1","parameterCategory":2,"la1":30.2991,"la2":30.254,"lo1":-89.0895,"lo2":-89.0444,"dy":0.0017,"dx":0.0017,"nx":28,"ny":28,"refTime":"2025-07-30T03:00:00:Z","depth":"2","parameterNumber":2,"parameterNumberName":"U-component_of_CURRENTS"},"data":[0,0,0,0,0,0,0,0,0,0,0,0,0,0,0,0,0,0,0,0,0,0,0,0,0,0,0,0,0,0,0,0,0,0,0,0,0,0,0,0,0,0,0,0,0,0,0,0,0,0,0,0,0,0,0,0,0,0,0.0636,0.0636,0,0.0837,0.0842,0.0846,0.1083,0.1084,0.1086,0.1087,0.1101,0.11,0.1099,0,0,0,0,0,0,0,0,0,0,0,0,0,0.0828,0.0823,0.0636,0.0636,0.0637,0.0837,0.0842,0.0847,0.1083,0.1084,0.1086,0.1088,0.1102,0.11,0.1099,0,0,0,0,0,0,0,0,0,0,0,0,0,0.0879,0.0821,0.0636,0.0762,0.0774,0.0836,0.0842,0.0848,0.1082,0.1084,0.1087,0.1089,0.1102,0.1101,0.1099,0.1042,0,0,0.1094,0.1093,0,0,0,0,0,0,0,0,0.0875,0.0874,0.0743,0.0753,0.0766,0.0918,0.0914,0.0896,0.1082,0.0989,0.1087,0.109,0.1006,0.1013,0.108,0.1042,0.1043,0.1094,0.1093,0.1092,0.1092,0,0,0,0,0,0,0,0.0871,0.0869,0.0739,0.0743,0.0757,0.0935,0.0944,0.0916,0.0995,0.0997,0.1009,0.0995,0.1015,0.1081,0.1081,0.1043,0.1094,0.1092,0.1091,0.1091,0.1033,0.1033,0,0,0,0,0,0,0.0777,0.0862,0.0732,0.0742,0.0803,0.0926,0.0938,0.0885,0.1,0.1015,0.0993,0.1005,0.1083,0.1083,0.1081,0.1193,0.1092,0.1091,0.109,0.1034,0.1033,0.1033,0,0,0,0,0,0,0.078,0.0762,0.0723,0.0794,0.0798,0.0915,0.0858,0.0887,0.0972,0.0995,0.1012,0.1046,0.1085,0.1084,0.1113,0.1187,0.109,0.1088,0.1035,0.1034,0.1033,0.1301,0,0,0,0,0,0,0.0784,0.0761,0.0781,0.0784,0.0789,0.084,0.0854,0.0889,0.0947,0.0967,0.1043,0.1049,0.1087,0.1116,0.1111,0.1183,0.1087,0.1035,0.1034,0.1033,0.1293,0.131,0.1324,0,0,0,0,0,0.079,0.0812,0.0779,0.0768,0.0779,0.0842,0.087,0.0977,0.0946,0.1049,0.1062,0.1048,0.1105,0.1116,0.111,0.1184,0.1036,0.1035,0.1033,0.1286,0.1307,0.1324,0,0,0,0,0,0,0.0921,0.0833,0.0801,0.0795,0.0834,0.0876,0.0967,0.0963,0.1057,0.1069,0.1057,0.1067,0.1134,0.107,0.108,0.1146,0.1058,0.1055,0.1251,0.127,0.1285,0.1243,0.1086,0,0,0,0,0,0.0929,0.0946,0.087,0.0901,0.0879,0.09,0.0948,0.0999,0.1029,0.1079,0.1109,0.1103,0.1117,0.1124,0.1151,0.1162,0.1121,0.1186,0.1202,0.1217,0.1168,0.1235,0.1256,0.1029,0.1029,0.1029,0,0,0.0981,0.0952,0.0956,0.0936,0.0954,0.0948,0.0947,0.1026,0.1065,0.1047,0.1147,0.1179,0.1131,0.1219,0.1231,0.1179,0.1258,0.1215,0.123,0.1171,0.1237,0.126,0.1281,0.1028,0.1028,0.1028,0,0,0.1079,0.1046,0.1059,0.1072,0.1084,0.1077,0.1068,0.1098,0.1175,0.1221,0.1237,0.127,0.1286,0.131,0.1291,0.135,0.1356,0.1382,0.1427,0.1498,0.152,0.1538,0.1537,0.1553,0.1374,0.1374,0.1375,0,0.1144,0.1129,0.1102,0.1103,0.1121,0.1089,0.1099,0.1146,0.122,0.1273,0.1275,0.1318,0.1302,0.1345,0.1411,0.1391,0.1438,0.1396,0.1531,0.1547,0.1561,0.1555,0.157,0.1387,0.1386,0.1384,0.1383,0,0.1166,0.1216,0.1233,0.1185,0.1214,0.1264,0.1221,0.1288,0.1301,0.1353,0.145,0.1456,0.1464,0.1492,0.1474,0.1577,0.1583,0.158,0.1515,0.1603,0.1587,0.1598,0.1405,0.1401,0.1397,0.1394,0,0,0.1205,0.1228,0.1269,0.1266,0.1274,0.1273,0.1318,0.1361,0.1378,0.1478,0.1545,0.1577,0.1611,0.158,0.1598,0.1647,0.1804,0.1688,0.1686,0.1738,0.198,0.1755,0.1743,0.192,0.1923,0.1925,0.1941,0,0.1256,0.1285,0.1303,0.1361,0.134,0.1348,0.1377,0.143,0.1488,0.157,0.1594,0.167,0.1634,0.1685,0.1735,0.1806,0.1842,0.1797,0.1834,0.183,0.1667,0.175,0.1663,0.1652,0.195,0.1952,0.1953,0,0.1294,0.1311,0.1356,0.1411,0.1394,0.1419,0.145,0.149,0.1585,0.1656,0.1731,0.1776,0.1844,0.1808,0.1901,0.1924,0.1948,0.1971,0.1974,0.1656,0.1623,0.1598,0.1658,0.1969,0.1968,0.1966,0.1965,0,0.1309,0.1392,0.1435,0.1444,0.1438,0.1483,0.1491,0.1552,0.1601,0.1744,0.1804,0.1894,0.1936,0.2008,0.1997,0.203,0.2095,0.2122,0.1906,0.189,0.1739,0.1702,0.2164,0.2164,0.2164,0.2164,0.2164,0,0.1353,0.1405,0.145,0.1441,0.1478,0.1498,0.1556,0.1584,0.1684,0.1749,0.186,0.1894,0.2016,0.2049,0.2059,0.1975,0.2122,0.189,0.1883,0.1821,0.1793,0.1985,0.1964,0.2164,0.2164,0.2164,0.2164,0,0.136,0.1402,0.1416,0.1448,0.1477,0.1487,0.1558,0.1594,0.17,0.1786,0.1849,0.1958,0.2016,0.2039,0.2123,0.1994,0.197,0.1896,0.176,0.1731,0.1711,0.1703,0.1688,0.168,0.1674,0.1668,0.1664,0,0.1334,0.1373,0.14,0.1404,0.143,0.1476,0.1516,0.1605,0.1664,0.1778,0.1824,0.1918,0.1923,0.1892,0.1799,0.1729,0.1836,0.1516,0.1485,0.1669,0.1666,0.1668,0.1669,0.1426,0.142,0.1415,0.1411,0,0.1274,0.1321,0.1291,0.1343,0.1386,0.139,0.1472,0.1508,0.1616,0.1696,0.1744,0.1758,0.1736,0.1616,0.1483,0.1418,0.1522,0.1397,0.1708,0.1507,0.1409,0.1408,0.1422,0.1366,0.137,0.1373,0.1376,0.1378,0.122,0.1191,0.121,0.1272,0.1301,0.1298,0.1307,0.1376,0.1417,0.1483,0.1573,0.1545,0.1419,0.1177,0.1116,0.1095,0.117,0.11,0.1124,0.1151,0.1065,0.0955,0.0809,0.0811,0.0812,0.0813,0.0814,0,0.1101,0.114,0.1159,0.1155,0.1161,0.1238,0.1283,0.1288,0.1318,0.1308,0.1345,0.1084,0.0963,0.0958,0.0853,0.072,0.0809,0.0699,0.0872,0.0912,0.0949,0.0863,0.0549,0.0549,0.0549,0.0548,0,0,0.1018,0.098,0.1019,0.1022,0.1092,0.1117,0.1141,0.1142,0.1145,0.1013,0.0961,0.09,0.0869,0.0666,0.0606,0.0632,0.0789,0.0595,0.0801,0.1049,0.1087,0.1154,0.1058,0,0,0,0,0]},{"header":{"parameterUnit":"m.s-1","parameterCategory":2,"la1":30.2991,"la2":30.254,"lo1":-89.0895,"lo2":-89.0444,"dy":0.0017,"dx":0.0017,"nx":28,"ny":28,"refTime":"2025-07-30T03:00:00:Z","depth":"2","parameterNumber":3,"parameterNumberName":"V-component_of_CURRENTS"},"data":[0,0,0,0,0,0,0,0,0,0,0,0,0,0,0,0,0,0,0,0,0,0,0,0,0,0,0,0,0,0,0,0,0,0,0,0,0,0,0,0,0,0,0,0,0,0,0,0,0,0,0,0,0,0,0,0,0,0,-0.0031,-0.0031,0,0.0016,0.0017,0.0018,0.004,0.004,0.0039,0.0038,-0.0169,-0.0174,-0.0179,0,0,0,0,0,0,0,0,0,0,0,0,0,-0.0061,-0.0061,-0.0031,-0.0031,-0.0031,0.0016,0.0017,0.0018,0.004,0.004,0.0039,0.0038,-0.0167,-0.0173,-0.0179,0,0,0,0,0,0,0,0,0,0,0,0,0,-0.0029,-0.006,-0.0031,-0.0019,-0.0018,0.0016,0.0017,0.0019,0.004,0.004,0.0039,0.0038,-0.0165,-0.0172,-0.018,-0.0208,0,0,-0.0203,-0.0206,0,0,0,0,0,0,0,0,-0.0031,-0.0027,-0.0021,-0.002,-0.0019,0.0016,-0.007,-0.0072,0.0041,0.0025,0.0038,0.0037,-0.0134,-0.0144,-0.0121,-0.0218,-0.0227,-0.0203,-0.0208,-0.0211,-0.0213,0,0,0,0,0,0,0,-0.0033,-0.0029,-0.0006,-0.0021,-0.0019,-0.0002,0.0002,-0.0068,-0.0051,0.0026,0.0026,0.0022,-0.0134,-0.0113,-0.0127,-0.023,-0.0203,-0.021,-0.0214,-0.0217,-0.0376,-0.0375,0,0,0,0,0,0,-0.0052,-0.0031,-0.0008,-0.0006,-0.0034,-0.0002,0.0003,0.0011,-0.0044,-0.0053,0.0023,0.0023,-0.01,-0.0118,-0.0134,-0.0128,-0.0211,-0.0218,-0.0222,-0.0376,-0.0376,-0.0375,0,0,0,0,0,0,-0.0053,-0.005,-0.001,-0.0023,-0.0017,-0.0001,0.0008,0.0012,0.0016,-0.0045,-0.0057,0.0019,-0.0102,-0.0124,-0.0171,-0.0139,-0.0221,-0.0228,-0.0376,-0.0376,-0.0375,-0.0146,0,0,0,0,0,0,-0.0053,-0.005,-0.0057,-0.0024,-0.0018,0.0026,0.0008,0.0013,0.0012,0.0013,-0.0053,-0.0071,-0.0104,-0.0159,-0.0178,-0.015,-0.0234,-0.0376,-0.0376,-0.0375,-0.0154,-0.0138,-0.0124,0,0,0,0,0,-0.0054,-0.0054,-0.0057,-0.0056,-0.0026,0.0026,0.0033,0.0045,0.0013,0.0039,-0.0002,-0.0069,-0.0171,-0.0164,-0.0187,-0.016,-0.0377,-0.0376,-0.0376,-0.0161,-0.0141,-0.0124,0,0,0,0,0,0,-0.0085,-0.0051,-0.0054,-0.0049,-0.0011,0.0028,0.0035,0.0034,0.0027,0.0013,-0.0057,-0.0075,-0.0097,-0.0182,-0.0173,-0.0212,-0.0291,-0.0295,-0.012,-0.0103,-0.0088,-0.0121,-0.024,0,0,0,0,0,-0.0095,-0.0063,-0.0042,-0.0026,-0.0023,-0.0001,0.001,0.0033,0.0031,0.0029,-0.0008,-0.0071,-0.011,-0.0148,-0.0188,-0.0223,-0.0284,-0.0231,-0.0215,-0.0202,-0.0248,-0.0247,-0.0234,-0.0373,-0.0373,-0.0373,0,0,-0.0097,-0.0077,-0.006,-0.0028,-0.0009,0.0015,0.0006,0.0043,0.0068,-0.0003,0.0008,-0.0016,-0.0107,-0.0102,-0.0127,-0.0173,-0.019,-0.0201,-0.0187,-0.0244,-0.0244,-0.023,-0.0218,-0.0373,-0.0373,-0.0373,0,0,-0.008,-0.0078,-0.0054,-0.0022,0.0011,0.0032,0.0033,0.0077,0.0095,0.0101,0.0076,0.0057,-0.0017,-0.0034,-0.0073,-0.0031,-0.0098,-0.0037,0.0002,0.001,0.0022,0.0032,0.0009,0.0015,-0.0041,-0.0041,-0.0041,0,-0.0104,-0.0054,-0.0036,-0.0012,0.0014,0.0029,0.0061,0.0083,0.0119,0.0135,0.0112,0.0062,0.0002,-0.0006,0.0034,0.0003,-0.0002,-0.0036,0.0036,0.0044,0.005,0.0023,0.0027,-0.003,-0.0031,-0.0032,-0.0033,0,-0.0071,-0.0028,-0.0012,0.0028,0.0054,0.0104,0.0124,0.0155,0.0156,0.0186,0.0198,0.0158,0.0117,0.0122,0.0085,0.0115,0.0098,0.0081,0.001,0.0079,0.0045,0.0045,-0.0014,-0.0018,-0.0021,-0.0024,0,0,-0.0119,-0.0011,-0.0005,0.0034,0.0092,0.0116,0.0151,0.0202,0.0217,0.0246,0.0277,0.0238,0.024,0.0191,0.0177,0.0174,0.0243,0.0161,0.0156,0.0168,0.0267,0.0307,0.0309,0.0288,0.0288,0.0288,0.0242,0,-0.0095,-0.0024,0.0023,0.0095,0.0138,0.017,0.0195,0.0239,0.0273,0.0318,0.0295,0.0317,0.0261,0.0279,0.0271,0.0261,0.0247,0.0255,0.0163,0.0158,0.0213,0.0311,0.0273,0.0234,0.024,0.024,0.024,0,-0.0074,-0.0018,0.006,0.0152,0.016,0.0196,0.0246,0.028,0.0338,0.037,0.0395,0.0402,0.0406,0.0357,0.0316,0.0348,0.03,0.0271,0.027,0.0206,0.0197,0.015,0.0231,0.0238,0.0238,0.0239,0.0239,0,-0.0082,0.001,0.0082,0.0115,0.0198,0.0227,0.0254,0.0306,0.0344,0.0434,0.0478,0.0483,0.049,0.0447,0.0373,0.0378,0.0327,0.0319,0.0284,0.0285,0.0168,0.016,0.026,0.026,0.0261,0.0261,0.0261,0,-0.0042,0.0001,0.0085,0.0135,0.0176,0.0229,0.0286,0.0318,0.0395,0.0455,0.051,0.0543,0.0523,0.0499,0.0418,0.0356,0.0352,0.0287,0.0286,0.025,0.025,0.0162,0.0151,0.0259,0.0259,0.026,0.026,0,-0.0044,0.0017,0.0083,0.017,0.0199,0.0212,0.0299,0.0341,0.0417,0.0504,0.0546,0.0608,0.0604,0.0546,0.0478,0.0415,0.0348,0.0307,0.0259,0.0255,0.0285,0.0286,0.0292,0.0293,0.0294,0.0295,0.0296,0,-0.0055,0.0017,0.01,0.0113,0.016,0.0211,0.026,0.0348,0.0418,0.0523,0.0572,0.0618,0.0668,0.0596,0.0495,0.0396,0.0353,0.0294,0.0281,0.0295,0.0293,0.0292,0.0292,0.0211,0.0211,0.0211,0.0211,0,-0.0037,0.0007,0.0053,0.0117,0.0163,0.0197,0.029,0.0359,0.047,0.0574,0.0672,0.0727,0.0681,0.061,0.0505,0.0418,0.0328,0.0295,0.0323,0.0234,0.0222,0.0219,0.022,0.0211,0.0211,0.0211,0.0211,0.0211,-0.0062,-0.0057,0.005,0.0089,0.0145,0.0209,0.0285,0.04,0.0533,0.0697,0.0718,0.0798,0.0645,0.0542,0.0427,0.0332,0.0347,0.0278,0.0275,0.0273,0.0298,0.0292,0.0295,0.0295,0.0296,0.0296,0.0296,0,-0.0084,-0.0029,0.0022,0.0076,0.0163,0.0195,0.0334,0.0439,0.0637,0.0719,0.0839,0.0702,0.0629,0.049,0.0353,0.0277,0.0241,0.0242,0.0188,0.0189,0.0189,0.0207,0.0181,0.0181,0.018,0.018,0,0,-0.0098,-0.0043,-0.0004,0.0115,0.0174,0.0305,0.0396,0.0557,0.0676,0.0796,0.0827,0.0798,0.0633,0.0469,0.0335,0.0284,0.0267,0.027,0.0367,0.032,0.0322,0.021,0.024,0,0,0,0,0]}],[{"header":{"parameterUnit":"m.s-1","parameterCategory":2,"la1":30.2991,"la2":30.254,"lo1":-89.0895,"lo2":-89.0444,"dy":0.0017,"dx":0.0017,"nx":28,"ny":28,"refTime":"2025-07-30T03:00:00:Z","depth":"4","parameterNumber":2,"parameterNumberName":"U-component_of_CURRENTS"},"data":[0,0,0,0,0,0,0,0,0,0,0,0,0,0,0,0,0,0,0,0,0,0,0,0,0,0,0,0,0,0,0,0,0,0,0,0,0,0,0,0,0,0,0,0,0,0,0,0,0,0,0,0,0,0,0,0,0,0,-0.0572,-0.0573,0,-0.0605,-0.0606,-0.0606,-0.0657,-0.0658,-0.0659,-0.066,-0.0794,-0.0796,-0.0799,0,0,0,0,0,0,0,0,0,0,0,0,0,-0.0549,-0.0549,-0.0572,-0.0573,-0.0573,-0.0605,-0.0606,-0.0606,-0.0657,-0.0658,-0.0659,-0.066,-0.0793,-0.0796,-0.0799,0,0,0,0,0,0,0,0,0,0,0,0,0,-0.0568,-0.0549,-0.0572,-0.0603,-0.0606,-0.0605,-0.0606,-0.0606,-0.0656,-0.0658,-0.0659,-0.0661,-0.0792,-0.0796,-0.08,-0.0796,0,0,-0.0812,-0.0814,0,0,0,0,0,0,0,0,-0.0567,-0.0569,-0.0598,-0.0601,-0.0604,-0.0629,-0.0647,-0.0675,-0.0656,-0.0637,-0.066,-0.0661,-0.0747,-0.0755,-0.0756,-0.0802,-0.0808,-0.0812,-0.0815,-0.0816,-0.0818,0,0,0,0,0,0,0,-0.0566,-0.0568,-0.0585,-0.0598,-0.0602,-0.0613,-0.0617,-0.0652,-0.0685,-0.0639,-0.0642,-0.0646,-0.075,-0.0752,-0.076,-0.081,-0.0812,-0.0816,-0.0818,-0.082,-0.0942,-0.0943,0,0,0,0,0,0,-0.0561,-0.0566,-0.0584,-0.0586,-0.0589,-0.0612,-0.0617,-0.0619,-0.0683,-0.0693,-0.0645,-0.0648,-0.0744,-0.0755,-0.0765,-0.0901,-0.0816,-0.082,-0.0822,-0.0941,-0.0942,-0.0943,0,0,0,0,0,0,-0.056,-0.0562,-0.0583,-0.0577,-0.0581,-0.0611,-0.0613,-0.0619,-0.0658,-0.0686,-0.0699,-0.0682,-0.0746,-0.0759,-0.0807,-0.0901,-0.0822,-0.0826,-0.094,-0.0941,-0.0942,-0.1086,0,0,0,0,0,0,-0.0559,-0.0561,-0.0577,-0.0577,-0.0581,-0.06,-0.0612,-0.0619,-0.0656,-0.0662,-0.0722,-0.0733,-0.0748,-0.0801,-0.0811,-0.0906,-0.0829,-0.0939,-0.0941,-0.0942,-0.108,-0.1092,-0.1102,0,0,0,0,0,-0.0558,-0.0569,-0.0578,-0.0581,-0.0597,-0.06,-0.0604,-0.063,-0.0656,-0.0671,-0.0705,-0.0733,-0.0819,-0.0804,-0.0816,-0.0915,-0.0938,-0.094,-0.0942,-0.1075,-0.109,-0.1102,0,0,0,0,0,0,-0.0565,-0.0575,-0.0585,-0.0598,-0.0608,-0.061,-0.0631,-0.0648,-0.0685,-0.0712,-0.0736,-0.0749,-0.0832,-0.0827,-0.081,-0.0944,-0.0887,-0.0891,-0.0984,-0.0998,-0.1009,-0.1002,-0.0832,0,0,0,0,0,-0.0572,-0.0593,-0.0591,-0.0609,-0.0613,-0.0629,-0.0643,-0.0665,-0.0687,-0.0707,-0.0763,-0.0806,-0.084,-0.0881,-0.0909,-0.0979,-0.0935,-0.1045,-0.1057,-0.1066,-0.1063,-0.1046,-0.1056,-0.0949,-0.0949,-0.0949,0,0,-0.0581,-0.0592,-0.0604,-0.0614,-0.0626,-0.0637,-0.0642,-0.0676,-0.071,-0.0718,-0.081,-0.0851,-0.086,-0.0942,-0.0981,-0.0961,-0.1073,-0.1069,-0.1078,-0.1069,-0.1049,-0.106,-0.1069,-0.095,-0.095,-0.095,0,0,-0.0601,-0.0616,-0.0636,-0.0644,-0.0671,-0.0675,-0.0692,-0.0731,-0.0773,-0.0842,-0.0863,-0.0938,-0.1013,-0.1042,-0.1057,-0.1134,-0.1124,-0.1173,-0.1248,-0.1233,-0.1242,-0.125,-0.1213,-0.1216,-0.119,-0.119,-0.1191,0,-0.0618,-0.0631,-0.0643,-0.0659,-0.0678,-0.0694,-0.0719,-0.0745,-0.0812,-0.0861,-0.089,-0.1026,-0.1052,-0.1129,-0.117,-0.1168,-0.1146,-0.1211,-0.1251,-0.1257,-0.1262,-0.1222,-0.1223,-0.1197,-0.1197,-0.1196,-0.1195,0,-0.0632,-0.0658,-0.067,-0.0697,-0.0721,-0.0744,-0.0774,-0.0826,-0.0896,-0.0951,-0.108,-0.1128,-0.1212,-0.125,-0.1243,-0.1322,-0.1289,-0.1262,-0.1226,-0.1282,-0.1235,-0.1234,-0.1208,-0.1205,-0.1203,-0.1201,0,0,-0.0638,-0.0672,-0.0686,-0.0705,-0.0748,-0.0765,-0.082,-0.0876,-0.0943,-0.1054,-0.117,-0.1257,-0.1337,-0.1354,-0.1392,-0.1399,-0.1431,-0.1371,-0.1367,-0.1348,-0.1395,-0.1233,-0.1215,-0.1429,-0.1429,-0.143,-0.135,0,-0.065,-0.0679,-0.0711,-0.0759,-0.0766,-0.0809,-0.0868,-0.0939,-0.1024,-0.1145,-0.1231,-0.1354,-0.1359,-0.1449,-0.1462,-0.1433,-0.1434,-0.1454,-0.1328,-0.1324,-0.1185,-0.121,-0.1431,-0.1349,-0.1348,-0.1348,-0.1348,0,-0.0658,-0.0672,-0.0727,-0.0787,-0.0804,-0.0868,-0.0968,-0.1036,-0.1171,-0.1259,-0.1393,-0.1455,-0.1532,-0.1528,-0.1499,-0.152,-0.1475,-0.1435,-0.1431,-0.1224,-0.1159,-0.1275,-0.1345,-0.1345,-0.1345,-0.1345,-0.1346,0,-0.0642,-0.069,-0.0742,-0.076,-0.0833,-0.091,-0.0984,-0.1109,-0.1192,-0.1369,-0.1442,-0.1541,-0.16,-0.157,-0.1495,-0.151,-0.1427,-0.1421,-0.1226,-0.1213,-0.1322,-0.1315,-0.1387,-0.1387,-0.1387,-0.1387,-0.1388,0,-0.0633,-0.0669,-0.0758,-0.0782,-0.0874,-0.0961,-0.1109,-0.1181,-0.135,-0.1385,-0.1544,-0.1523,-0.1611,-0.1563,-0.1511,-0.1345,-0.1427,-0.1227,-0.118,-0.1383,-0.1383,-0.1321,-0.1315,-0.1384,-0.1385,-0.1386,-0.1386,0,-0.062,-0.0668,-0.0717,-0.0822,-0.0876,-0.0973,-0.1168,-0.1233,-0.1408,-0.1453,-0.1505,-0.1542,-0.1406,-0.1447,-0.1357,-0.1315,-0.1205,-0.1129,-0.1335,-0.1303,-0.1002,-0.1004,-0.0902,-0.0895,-0.089,-0.0885,-0.0881,0,-0.0607,-0.0638,-0.075,-0.0801,-0.0876,-0.103,-0.1097,-0.127,-0.127,-0.1335,-0.1266,-0.1258,-0.1218,-0.1027,-0.1051,-0.0991,-0.0969,-0.0981,-0.101,-0.0987,-0.0953,-0.0963,-0.0972,-0.0873,-0.0871,-0.087,-0.0868,0,-0.0585,-0.0656,-0.0693,-0.0796,-0.0884,-0.0904,-0.0976,-0.1015,-0.1087,-0.1212,-0.1022,-0.1001,-0.0855,-0.081,-0.0829,-0.0756,-0.1023,-0.0924,-0.0935,-0.0963,-0.095,-0.0925,-0.094,-0.085,-0.0852,-0.0854,-0.0855,0,-0.0577,-0.0582,-0.0671,-0.0747,-0.0821,-0.0755,-0.0829,-0.0764,-0.0814,-0.0862,-0.0717,-0.0706,-0.0718,-0.0669,-0.0609,-0.0618,-0.0594,-0.0638,-0.0664,-0.0685,-0.0657,-0.0613,-0.0356,0,0,0,0,0,-0.0536,-0.0523,-0.0604,-0.0627,-0.0695,-0.07,-0.0692,-0.0733,-0.0772,-0.0594,-0.0694,-0.052,-0.0475,-0.0457,-0.0415,-0.0495,-0.0616,-0.0447,-0.0686,-0.0745,-0.0767,-0.0758,0,0,0,0,0,0,-0.0493,-0.0554,-0.0562,-0.0537,-0.053,-0.0505,-0.0494,-0.0497,-0.0399,-0.0469,-0.0425,-0.0475,-0.0421,-0.0473,-0.0392,-0.0398,-0.0537,-0.0453,-0.0452,-0.0733,-0.0753,-0.077,-0.0768,0,0,0,0,0]},{"header":{"parameterUnit":"m.s-1","parameterCategory":2,"la1":30.2991,"la2":30.254,"lo1":-89.0895,"lo2":-89.0444,"dy":0.0017,"dx":0.0017,"nx":28,"ny":28,"refTime":"2025-07-30T03:00:00:Z","depth":"4","parameterNumber":3,"parameterNumberName":"V-component_of_CURRENTS"},"data":[0,0,0,0,0,0,0,0,0,0,0,0,0,0,0,0,0,0,0,0,0,0,0,0,0,0,0,0,0,0,0,0,0,0,0,0,0,0,0,0,0,0,0,0,0,0,0,0,0,0,0,0,0,0,0,0,0,0,-0.0163,-0.0162,0,-0.0135,-0.0135,-0.0135,-0.0111,-0.0111,-0.0111,-0.011,-0.006,-0.0059,-0.0058,0,0,0,0,0,0,0,0,0,0,0,0,0,-0.0163,-0.0163,-0.0163,-0.0162,-0.0162,-0.0135,-0.0135,-0.0135,-0.0111,-0.0111,-0.0111,-0.011,-0.006,-0.0059,-0.0057,0,0,0,0,0,0,0,0,0,0,0,0,0,-0.0152,-0.0164,-0.0163,-0.0147,-0.0145,-0.0136,-0.0135,-0.0135,-0.0111,-0.0111,-0.0111,-0.011,-0.006,-0.0059,-0.0057,-0.0055,0,0,-0.0052,-0.0052,0,0,0,0,0,0,0,0,-0.0153,-0.0152,-0.015,-0.0148,-0.0146,-0.0126,-0.0117,-0.0107,-0.0112,-0.0124,-0.011,-0.011,-0.008,-0.0077,-0.0073,-0.0053,-0.0051,-0.0052,-0.0051,-0.005,-0.005,0,0,0,0,0,0,0,-0.0154,-0.0153,-0.0152,-0.0149,-0.0147,-0.013,-0.0129,-0.0115,-0.0105,-0.0123,-0.0122,-0.0118,-0.0079,-0.0075,-0.0072,-0.005,-0.0052,-0.0051,-0.005,-0.0049,-0.004,-0.0041,0,0,0,0,0,0,-0.0159,-0.0154,-0.0153,-0.0151,-0.0148,-0.0131,-0.0129,-0.0133,-0.0105,-0.0101,-0.0119,-0.0117,-0.0078,-0.0074,-0.007,-0.0059,-0.005,-0.0049,-0.0048,-0.004,-0.004,-0.0041,0,0,0,0,0,0,-0.0159,-0.016,-0.0154,-0.0151,-0.0149,-0.0132,-0.0136,-0.0133,-0.0128,-0.0102,-0.0097,-0.0117,-0.0077,-0.0072,-0.0067,-0.0057,-0.0048,-0.0047,-0.0039,-0.004,-0.0041,-0.0042,0,0,0,0,0,0,-0.016,-0.016,-0.0171,-0.0152,-0.015,-0.015,-0.0136,-0.0133,-0.0127,-0.0124,-0.0099,-0.0094,-0.0076,-0.007,-0.0066,-0.0054,-0.0045,-0.0038,-0.0039,-0.004,-0.0041,-0.0043,-0.0044,0,0,0,0,0,-0.016,-0.0169,-0.0172,-0.0172,-0.0164,-0.015,-0.0147,-0.0133,-0.0127,-0.0127,-0.0117,-0.0095,-0.0076,-0.0069,-0.0064,-0.0052,-0.0037,-0.0039,-0.004,-0.004,-0.0042,-0.0044,0,0,0,0,0,0,-0.0169,-0.0167,-0.017,-0.0178,-0.0168,-0.0146,-0.0147,-0.0136,-0.0128,-0.0128,-0.0104,-0.0099,-0.009,-0.008,-0.0074,-0.0058,-0.0053,-0.0053,-0.0054,-0.0056,-0.0058,-0.006,-0.0044,0,0,0,0,0,-0.018,-0.019,-0.0179,-0.0187,-0.0184,-0.0168,-0.0163,-0.0152,-0.014,-0.0135,-0.012,-0.0107,-0.0094,-0.0083,-0.0074,-0.0064,-0.0035,-0.0055,-0.0057,-0.0059,-0.006,0.0005,0.001,-0.0047,-0.0047,-0.0047,0,0,-0.0188,-0.0186,-0.0194,-0.019,-0.0184,-0.0186,-0.0164,-0.0157,-0.0161,-0.0131,-0.0136,-0.0114,-0.0096,-0.0085,-0.008,-0.0073,-0.0033,-0.0061,-0.0062,-0.0062,0.0004,0.001,0.0016,-0.0048,-0.0048,-0.0048,0,0,-0.0198,-0.0206,-0.0216,-0.0213,-0.0206,-0.0198,-0.0197,-0.0181,-0.0178,-0.0177,-0.0156,-0.0134,-0.012,-0.0098,-0.0086,-0.0096,-0.0048,-0.009,-0.0091,-0.0028,-0.0022,-0.0016,0.0011,0.002,-0.0086,-0.0086,-0.0086,0,-0.021,-0.022,-0.0215,-0.022,-0.0227,-0.0206,-0.0217,-0.021,-0.0195,-0.0199,-0.0183,-0.015,-0.0127,-0.0104,-0.01,-0.0097,-0.006,-0.0079,-0.0027,-0.002,-0.0014,0.0013,0.0022,-0.0086,-0.0086,-0.0086,-0.0086,0,-0.022,-0.0236,-0.0239,-0.025,-0.0255,-0.0257,-0.0253,-0.0256,-0.0249,-0.0239,-0.0221,-0.0179,-0.0151,-0.0138,-0.0116,-0.0066,-0.0055,-0.0036,-0.0013,-0.0008,0.0019,0.0029,-0.0086,-0.0086,-0.0086,-0.0086,0,0,-0.0232,-0.0247,-0.0251,-0.0271,-0.0274,-0.0281,-0.0295,-0.0303,-0.032,-0.0281,-0.0278,-0.023,-0.0187,-0.0171,-0.0126,-0.0068,0.0009,-0.0026,-0.0022,0.0014,0.0138,0.0029,0.0029,0.0057,0.0059,0.0061,0.0135,0,-0.0246,-0.0268,-0.0275,-0.031,-0.0325,-0.033,-0.0354,-0.036,-0.0355,-0.0347,-0.0283,-0.0253,-0.0204,-0.0166,-0.0101,-0.0015,0.0037,-0.0015,0.0115,0.0118,0.0033,0.0038,0.0067,0.0142,0.0144,0.0146,0.0147,0,-0.0256,-0.0273,-0.031,-0.0356,-0.0366,-0.0391,-0.0434,-0.0444,-0.0431,-0.0414,-0.0357,-0.0301,-0.0202,-0.0158,-0.0001,-0.0026,0.0055,0.0116,0.0121,0.0027,0.0027,0.0138,0.0165,0.0164,0.0163,0.0161,0.016,0,-0.027,-0.0304,-0.0341,-0.0354,-0.0397,-0.0429,-0.045,-0.047,-0.0482,-0.0432,-0.0412,-0.0307,-0.0228,-0.0103,0.0024,0.0039,0.0179,0.0212,0.0177,0.017,0.0251,0.0244,0.0315,0.0315,0.0314,0.0314,0.0314,0,-0.0283,-0.0318,-0.0355,-0.0378,-0.0445,-0.0457,-0.052,-0.0523,-0.0512,-0.0513,-0.0426,-0.0391,-0.0199,-0.0103,0.0015,0.0108,0.0178,0.0171,0.0185,0.0243,0.0234,0.0257,0.0249,0.0317,0.0316,0.0316,0.0315,0,-0.0301,-0.0321,-0.0373,-0.0428,-0.0456,-0.0502,-0.0561,-0.0594,-0.0565,-0.0549,-0.0512,-0.0416,-0.03,-0.0165,0.0023,0.008,0.0187,0.0198,0.0216,0.0231,0.0141,0.0133,0.0185,0.0182,0.0179,0.0177,0.0175,0,-0.0312,-0.0336,-0.0413,-0.0468,-0.0503,-0.0569,-0.0622,-0.0619,-0.0617,-0.0575,-0.0545,-0.0456,-0.0384,-0.0201,-0.0083,0.0085,0.0105,0.016,0.0182,0.0121,0.0131,0.0126,0.0121,0.0171,0.017,0.0169,0.0169,0,-0.0348,-0.0378,-0.0426,-0.0516,-0.0589,-0.0642,-0.0678,-0.0667,-0.0636,-0.0633,-0.054,-0.0462,-0.0374,-0.0233,-0.0128,-0.0004,0.0131,0.0134,0.0141,0.0163,0.0104,0.0116,0.0114,0.0159,0.0161,0.0161,0.0162,0,-0.0383,-0.0417,-0.0483,-0.0542,-0.0639,-0.0652,-0.0683,-0.0657,-0.064,-0.0552,-0.0547,-0.0452,-0.0393,-0.0287,-0.019,-0.0093,-0.0056,0.0012,0.0027,0.0038,-0.0045,-0.0143,-0.0154,0,0,0,0,0,-0.0403,-0.0421,-0.0503,-0.0556,-0.0643,-0.0649,-0.0692,-0.0696,-0.0661,-0.0588,-0.0543,-0.0462,-0.0347,-0.0315,-0.023,-0.0258,-0.0059,-0.0162,0.0023,0.0108,0.0118,0.0033,0,0,0,0,0,0,-0.0428,-0.0497,-0.049,-0.0538,-0.0543,-0.0603,-0.0597,-0.0583,-0.0521,-0.0496,-0.043,-0.0426,-0.0313,-0.0353,-0.0207,-0.0194,-0.0068,-0.0119,-0.0117,0.0102,0.0111,0.012,0.0036,0,0,0,0,0]}]]